Regional Weather Roundup
Issued by NWS Huntsville, AL

Home | Current Version | Previous Version | Text Only | Print | Product List | Glossary On
Versions: 1 2 3 4 5 6 7 8 9 10 11 12 13 14 15 16 17 18 19 20 21 22 23 24 25 26 27 28 29 30 31 32 33 34 35 36 37 38 39 40 41 42 43 44 45 46 47 48 49 50
000
ASUS44 KHUN 281410
RWRHUN

WEATHER ROUNDUP FOR THE TENNESSEE VALLEY
NATIONAL WEATHER SERVICE HUNTSVILLE AL
900 AM CDT TUE APR 28 2015

ALZ001>004-281500-
NORTHWEST ALABAMA

CITY           SKY/WX    TMP DP  RH WIND       PRES   REMARKS
COURTLAND HCN    N/A     55 N/A N/A E6          N/A
BANKHEAD NF      N/A     57  42  56 SE2         N/A
RUSSELLVILLE     N/A     54 N/A N/A MISG        N/A
SHOALS AIRPORT MOSUNNY   57  42  57 NE8       29.97F
SHOALS TVA RES   N/A     55 N/A N/A MISG        N/A
$$

ALZ005>007-016-281500-
NORTH CENTRAL ALABAMA

CITY           SKY/WX    TMP DP  RH WIND       PRES   REMARKS
DECATUR AP     MOSUNNY   57  42  57 NE7       29.96S
HUNTSVILLE AP  PTSUNNY   62  41  46 NE12      29.95S
HUN NWS/UAH      N/A     58  38  47 NE7         N/A
MERIDIANVILLE  MOSUNNY   54  37  54 N6        29.96F
REDSTONE ARSN  PTSUNNY   59  41  52 NE8       29.94F
VINEMONT AP    FAIR      56  40  54 NE8       29.95S
$$

ALZ008>010-281500-
NORTHEAST ALABAMA

CITY           SKY/WX    TMP DP  RH WIND       PRES   REMARKS
ALBERTVILLE    SUNNY     59  45  58 E12G22    29.93S
FORT PAYNE     SUNNY     59  34  38 NE8       29.94S
SCOTTSBORO HCN   N/A     55 N/A N/A MISG        N/A
VALLEY HEAD      N/A     59 N/A N/A MISG        N/A
$$

TNZ076-096-097-281500-
SOUTHEASTERN MIDDLE TENNESSEE

CITY           SKY/WX    TMP DP  RH WIND       PRES   REMARKS
TULLAHOMA      SUNNY     54  39  58 VRB5      29.99S
WINCHESTER     SUNNY     55  43  62 N5        29.98S
$$

...SURROUNDING SITES...

CITY           SKY/WX    TMP DP  RH WIND       PRES   REMARKS
ATLANTA        MOSUNNY   61  37  41 E14G22    29.95F
ANNISTON       SUNNY     60  46  59 E7        29.92F
BIRMINGHAM     MOSUNNY   61  42  49 E12       29.92S
CHATTANOOGA    PTSUNNY   57  39  51 NE12      29.98F
CORINTH        FAIR      55  43  62 NE7       29.97S
DALTON         SUNNY     55  45  67 CALM      29.97F
GADSDEN        SUNNY     59  41  51 NE13      29.92S
GOLDEN TRNGL   SUNNY     55  43  62 NE7       29.91S
HALEYVILLE       N/A     56  41  57 MISG      29.96F
JACKSON TN     NOT AVBL
MEMPHIS        CLOUDY    54  42  64 NE8       29.99S
NASHVILLE      NOT AVBL
OXFORD MS      FAIR      54  41  62 NE6       29.98R
ROME           SUNNY     59  43  55 NE8       29.95F
SAVANNAH       SUNNY     54  32  43 NE6       29.99S
TUPELO         PTSUNNY   56  42  59 NE10      29.93F
TUSCALOOSA     MOSUNNY   61  42  49 NE10      29.90F
$$

...GULF COAST WEATHER...

CITY           SKY/WX    TMP DP  RH WIND       PRES   REMARKS
GULFPORT       CLOUDY    65  57  75 NE5       29.80S
PASCAGOULA     MOSUNNY   66  59  78 NE7       29.80S
MOBILE         PTSUNNY   64  56  75 E7        29.82R
GULF SHORES    CLOUDY    64  61  92 NE3       29.79F
PENSACOLA      CLOUDY    67  63  87 NE7       29.78F
DESTIN         CLOUDY    68  64  87 NE8       29.79S
PANAMA CITY    PTSUNNY   69  67  92 NE6       29.78S
APPALACHICOLA  CLOUDY    74  69  85 NE7       29.77R
$$




USA.gov is the U.S. government's official web portal to all federal, state and local government web resources and services.